DW2610 Weather Reports


time (UTC)temp
C
wind
direction
speed
KPH
gust
KPH
rain 1hr
cm
rain 24hr
cm
rain mn
cm
humidity
%
barometer
mb
20260906211008 26 101 8.0 24.1 0.00 0.00 0.00 47 1018.5
20260906210033 27 201 8.0 24.1 0.00 0.00 0.00 45 1018.5
20260906203933 27 201 6.4 16.1 0.00 0.00 0.00 46 1018.6
20260906202906 27 83 8.0 25.7 0.00 0.00 0.00 45 1018.7
20260906201848 27 107 8.0 25.7 0.00 0.00 0.00 44 1018.5
20260906195704 28 109 3.2 14.5 0.00 0.00 0.00 43 1018.6
20260906194635 27 31 4.8 17.7 0.00 0.00 0.00 47 1018.6
20260906193655 27 52 3.2 17.7 0.00 0.00 0.00 46 1018.7
20260906192634 26 30 3.2 14.5 0.00 0.00 0.00 47 1018.8
20260906191655 26 49 1.6 8.0 0.00 0.00 0.00 48 1018.9
20260906190625 26 0 3.2 12.9 0.00 0.00 0.00 48 1019.1
20260906185641 26 40 1.6 9.7 0.00 0.00 0.00 47 1019.0
20260906184639 27 53 3.2 12.9 0.00 0.00 0.00 46 1019.1
20260906183645 27 53 3.2 12.9 0.00 0.00 0.00 45 1019.2
20260906182657 28 37 3.2 11.3 0.00 0.00 0.00 43 1019.3
20260906181648 29 329 3.2 11.3 0.00 0.00 0.00 40 1019.4
20260906180634 30 299 3.2 11.3 0.00 0.00 0.00 32 1019.5
20260906175636 30 291 3.2 16.1 0.00 0.00 0.00 36 1019.6
20260906174638 29 240 4.8 16.1 0.00 0.00 0.00 36 1019.6
20260906173648 29 196 3.2 14.5 0.00 0.00 0.00 38 1019.7
20260906172652 28 301 0.0 9.7 0.00 0.00 0.00 39 1019.8
20260906171710 28 17 3.2 12.9 0.00 0.00 0.00 41 1019.9
20260906165453 27 159 4.8 9.7 0.00 0.00 0.00 45 1020.0
20260906164458 27 213 6.4 16.1 0.00 0.00 0.00 45 1020.2
20260906163424 26 107 4.8 14.5 0.00 0.00 0.00 47 1020.3
20260906162359 26 183 3.2 12.9 0.00 0.00 0.00 47 1020.6
20260906161351 26 151 3.2 20.9 0.00 0.00 0.00 48 1020.5
20260906160341 25 156 4.8 20.9 0.00 0.00 0.00 49 1020.5
20260906155352 25 132 4.8 12.9 0.00 0.00 0.00 49 1020.5
20260906153219 23 161 0.0 11.3 0.00 0.00 0.00 55 1020.3
20260906152200 23 184 0.0 0.0 0.00 0.00 0.00 57 1020.2
20260906151217 22 165 0.0 0.0 0.00 0.00 0.00 59 1020.2
20260906150238 22 173 0.0 0.0 0.00 0.00 0.00 61 1020.2
20260906145225 21 180 0.0 4.8 0.00 0.00 0.00 62 1020.3
20260906144200 21 180 3.2 9.7 0.00 0.00 0.00 65 1020.5
20260906143217 21 165 1.6 14.5 0.00 0.00 0.00 67 1020.4
20260906142143 21 174 4.8 14.5 0.00 0.00 0.00 67 1020.3
20260906141145 20 155 4.8 12.9 0.00 0.00 0.00 69 1020.4
20260906140157 18 142 0.0 12.9 0.00 0.00 0.00 78 1020.4
20260906135205 16 58 0.0 0.0 0.00 0.00 0.00 88 1020.2
20260906134150 15 58 0.0 0.0 0.00 0.00 0.00 92 1020.2
20260906133121 13 58 0.0 0.0 0.00 0.00 0.00 92 1020.1
20260906132137 13 58 0.0 0.0 0.00 0.00 0.00 91 1020.2
20260906131141 13 58 0.0 0.0 0.00 0.00 0.00 90 1020.2
20260906125100 13 58 0.0 0.0 0.00 0.00 0.00 87 1020.2
20260906122854 13 58 0.0 0.0 0.00 0.00 0.00 87 1020.2
20260906121901 13 58 0.0 3.2 0.00 0.00 0.00 86 1020.3
20260906115642 14 114 0.0 0.0 0.00 0.00 0.00 85 1020.3
20260906114617 15 114 0.0 0.0 0.00 0.00 0.00 84 1020.3
20260906113543 15 114 0.0 0.0 0.00 0.00 0.00 83 1020.3
20260906112532 15 114 0.0 0.0 0.00 0.00 0.00 84 1020.2
20260906111515 16 114 0.0 0.0 0.00 0.00 0.00 84 1020.2
20260906110508 16 114 0.0 0.0 0.00 0.00 0.00 83 1020.3
20260906104353 16 146 0.0 0.0 0.00 0.00 0.00 83 1020.3
20260906103334 16 157 1.6 6.4 0.00 0.00 0.00 84 1020.3
20260906102314 16 197 1.6 6.4 0.00 0.00 0.00 85 1020.2
20260906101319 15 205 0.0 0.0 0.00 0.00 0.00 85 1020.2
20260906100303 15 210 0.0 0.0 0.00 0.00 0.00 85 1020.2
20260906095300 15 210 0.0 0.0 0.00 0.00 0.00 84 1020.2
20260906093206 15 103 0.0 3.2 0.00 0.00 0.00 85 1020.0
20260906092204 15 165 0.0 4.8 0.00 0.00 0.00 87 1020.0
20260906091222 14 184 0.0 0.0 0.00 0.00 0.00 87 1020.1
20260906090203 14 184 0.0 8.0 0.00 0.00 0.00 88 1020.1
20260906085138 13 167 0.0 0.0 0.00 0.00 0.00 89 1020.2
20260906084103 13 221 0.0 0.0 0.00 0.00 0.00 89 1020.2
20260906083039 13 221 0.0 0.0 0.00 0.00 0.00 89 1020.3
20260906082057 13 221 0.0 0.0 0.00 0.00 0.00 89 1020.4
20260906075925 13 221 0.0 0.0 0.00 0.00 0.00 87 1020.3
20260906074912 13 221 0.0 0.0 0.00 0.00 0.00 87 1020.3
20260906073851 14 221 0.0 0.0 0.00 0.00 0.00 87 1020.4
20260906071726 14 221 0.0 0.0 0.00 0.00 0.00 83 1020.4
20260906070732 15 221 0.0 0.0 0.00 0.00 0.00 80 1020.3
20260906065728 15 221 0.0 0.0 0.00 0.00 0.00 79 1020.4
20260906064715 15 221 0.0 0.0 0.00 0.00 0.00 78 1020.6
20260906063735 16 221 0.0 0.0 0.00 0.00 0.00 77 1020.7
20260906062727 16 221 0.0 0.0 0.00 0.00 0.00 77 1020.7
20260906061717 16 221 0.0 0.0 0.00 0.00 0.00 77 1020.7
20260906055529 15 178 0.0 3.2 0.00 0.00 0.00 77 1020.8
20260906053403 15 5 0.0 0.0 0.00 0.00 0.00 77 1020.8
20260906052354 15 5 0.0 0.0 0.00 0.00 0.00 76 1020.9
20260906051331 15 5 0.0 0.0 0.00 0.00 0.00 77 1020.8
20260906050350 15 5 0.0 0.0 0.00 0.00 0.00 77 1020.7
20260906045404 15 5 0.0 0.0 0.00 0.00 0.00 76 1020.7
20260906044424 16 5 0.0 0.0 0.00 0.00 0.00 76 1020.7
20260906043413 16 5 0.0 0.0 0.00 0.00 0.00 75 1020.7
20260906042408 16 5 0.0 0.0 0.00 0.00 0.00 74 1020.8
20260906041418 16 5 0.0 0.0 0.00 0.00 0.00 72 1020.9
20260906040348 16 5 0.0 0.0 0.00 0.00 0.00 72 1021.0
20260906035340 16 5 0.0 0.0 0.00 0.00 0.00 70 1021.0
20260906033158 16 5 0.0 0.0 0.00 0.00 0.00 67 1021.1
20260906031037 17 5 0.0 0.0 0.00 0.00 0.00 61 1021.3
20260906030043 18 5 0.0 0.0 0.00 0.00 0.00 60 1021.1
20260906023909 20 5 0.0 0.0 0.00 0.00 0.00 54 1021.0
20260906022835 21 5 0.0 0.0 0.00 0.00 0.00 52 1020.8
20260906020710 22 34 0.0 0.0 0.00 0.00 0.00 48 1020.7
20260906015649 22 36 0.0 0.0 0.00 0.00 0.00 47 1020.5
20260906014702 23 36 0.0 0.0 0.00 0.00 0.00 45 1020.5
20260906013647 23 74 0.0 0.0 0.00 0.00 0.00 44 1020.5
20260906012658 23 132 0.0 0.0 0.00 0.00 0.00 43 1020.6
20260906011721 24 146 4.8 12.9 0.00 0.00 0.00 43 1020.7
20260906010740 24 140 4.8 14.5 0.00 0.00 0.00 44 1020.6
20260906005749 25 157 1.6 14.5 0.00 0.00 0.00 43 1020.6
20260906004730 25 109 1.6 14.5 0.00 0.00 0.00 42 1020.5
20260906003715 25 91 1.6 9.7 0.00 0.00 0.00 41 1020.5
20260906001510 25 130 3.2 12.9 0.00 0.00 0.00 42 1020.3
20260906000533 25 181 6.4 14.5 0.00 0.00 0.00 41 1020.2
20260905234424 26 173 6.4 20.9 0.00 0.00 0.00 41 1020.1
20260905233436 26 187 6.4 20.9 0.00 0.00 0.00 37 1020.1
20260905232458 26 150 3.2 14.5 0.00 0.00 0.00 38 1020.0
20260905231438 25 181 0.0 0.0 0.00 0.00 0.00 40 1020.1
20260905230427 26 150 3.2 0.0 0.00 0.00 0.00 42 1020.0
20260905224232 27 228 1.6 11.3 0.00 0.00 0.00 31 1019.9
20260905223249 27 173 0.0 0.0 0.00 0.00 0.00 40 1020.0
20260905222256 27 173 0.0 0.0 0.00 0.00 0.00 39 1019.9
20260905221317 27 173 0.0 0.0 0.00 0.00 0.00 32 1020.0
20260905220316 27 156 0.0 6.4 0.00 0.00 0.00 34 1020.1
20260905215306 27 156 1.6 0.0 0.00 0.00 0.00 34 1020.1
20260905214258 28 195 1.6 4.8 0.00 0.00 0.00 31 1020.2
20260905213319 29 148 4.8 20.9 0.00 0.00 0.00 30 1020.2